Location: Bremen
(53.0830°N, 8.8000°E)
Time: 14:27:29
(UTC+02:00)

Envisat - Visible Passes

Search period start: 01 October 2022 00:00
Search period end: 11 October 2022 00:00
Orbit: 764 x 765 km, 98.2° (Epoch: 01 October)

Date Brightness Start Highest point End Pass type
(mag) Time Alt. Az. Time Alt. Az. Time Alt. Az.
01 Oct 3.9 05:32:40 10° NNE 05:37:39 51° E 05:42:34 10° S visible
02 Oct 5.0 04:56:07 10° NE 05:00:24 27° E 05:04:40 10° SSE visible
02 Oct 3.1 06:34:45 10° N 06:39:45 55° WNW 06:44:41 10° SW visible
03 Oct 5.8 04:20:20 10° NE 04:22:57 14° E 04:25:34 10° ESE visible
03 Oct 3.1 05:57:42 10° NNE 06:02:49 80° ESE 06:07:54 10° SSW visible
04 Oct 4.2 05:20:54 10° NNE 05:25:43 41° E 05:30:31 10° SSE visible
05 Oct 5.3 04:44:29 10° NE 04:48:25 22° E 04:52:19 10° SE visible
05 Oct 3.0 06:22:51 10° N 06:27:55 67° WNW 06:32:56 10° SSW visible
06 Oct 6.0 04:09:25 10° ENE 04:10:54 11° E 04:12:23 10° E visible
06 Oct 3.4 05:45:51 10° NNE 05:50:56 65° ESE 05:55:59 10° S visible
07 Oct 4.6 05:09:09 10° NNE 05:13:46 34° E 05:18:22 10° SSE visible
07 Oct 3.4 06:48:05 10° N 06:52:55 44° WNW 06:57:42 10° SW visible
08 Oct 5.6 04:32:57 10° NE 04:36:24 18° E 04:39:50 10° SE visible
08 Oct 2.9 06:10:57 10° NNE 06:16:04 82° WNW 06:21:09 10° SSW visible
09 Oct 3.8 05:34:02 10° NNE 05:39:02 53° E 05:43:59 10° S visible
10 Oct 4.9 04:57:26 10° NNE 05:01:48 28° E 05:06:08 10° SSE visible
10 Oct 3.1 06:36:09 10° N 06:41:06 53° WNW 06:46:02 10° SW visible
